Temp
18 17 16 16 15 14 13 13 12 11 11 10 10 10 10 10 10 11 10 10 10 10
17 16 15 15 15 14 13 12 12 12 11 10 10 10 10 10 10 10 10 10 10 10
16 16 15 14 14 13 13 12 11 11 10 10 10 10 10 10 10 10 10 10 10 10
15 15 14 13 13 13 12 11 10 10 10 10 10 10 10 10 10 10 10 10 10 10
15 14 13 13 12 12 11 10 10 10 9 9 9 10 10 10 10 10 10 10 10 10
12 13 12 11 11 10 10 10 9 9 9 9 9 9 9 10 10 10 10 10 10 9
11 12 11 11 10 9 10 9 9 9 9 9 9 9 9 9 10 10 10 10 9 9
10 10 10 10 10 9 10 9 9 9 8 9 9 9 9 9 10 9 9 9 9 9
10 9 9 10 9 9 9 9 9 8 8 8 9 9 9 9 9 9 9 9 9 9
9 9 9 9 9 9 9 9 9 8 9 8 9 8 8 9 8 9 9 9 9 9
7 8 9 9 9 9 9 9 9 9 8 9 9 8 8 8 8 8 8 8 8 8
2 4 6 6 8 9 9 9 8 8 8 8 8 9 8 8 8 8 8 8 8 8
0 -1 0 2 2 5 7 8 7 6 6 7 7 8 8 8 7 7 7 7 7 7
-2 -1 -3 -3 -1 1 0 4 4 4 4 4 5 5 5 5 6 6 5 5 5 5
Height
1403 1408 1412 1415 1418 1421 1425 1430 1435 1438 1441 1443 1446 1448 1450 1452 1454 1458 1460 1463 1467 1472
1402 1404 1407 1412 1415 1419 1422 1427 1430 1433 1435 1437 1439 1441 1443 1444 1446 1450 1453 1456 1461 1464
1399 1402 1405 1408 1412 1415 1419 1422 1425 1427 1430 1432 1433 1434 1436 1437 1439 1441 1444 1449 1454 1457
1395 1398 1402 1405 1409 1413 1416 1418 1420 1422 1423 1425 1425 1426 1428 1429 1430 1432 1437 1441 1445 1450
1393 1396 1400 1403 1407 1410 1412 1414 1416 1417 1418 1418 1419 1419 1420 1421 1418 1422 1428 1430 1437 1442
1392 1394 1399 1402 1405 1408 1409 1410 1411 1411 1411 1411 1412 1413 1413 1413 1413 1416 1420 1427 1432 1437
1392 1394 1397 1400 1403 1405 1406 1406 1407 1407 1407 1407 1407 1407 1406 1407 1409 1413 1417 1421 1424 1429
1392 1393 1395 1398 1402 1402 1404 1405 1405 1406 1407 1405 1405 1404 1403 1401 1406 1408 1413 1416 1421 1425
1390 1393 1395 1396 1398 1400 1402 1403 1404 1405 1405 1405 1405 1404 1402 1402 1402 1406 1408 1412 1418 1421
1388 1391 1394 1393 1395 1397 1399 1400 1402 1403 1403 1404 1404 1405 1404 1404 1404 1404 1406 1411 1413 1418
1389 1389 1390 1391 1393 1393 1395 1397 1399 1400 1400 1401 1401 1403 1404 1405 1405 1407 1407 1410 1413 1418
1389 1389 1388 1388 1390 1389 1391 1395 1396 1396 1397 1398 1399 1401 1402 1403 1404 1406 1407 1410 1413 1416
1398 1391 1388 1390 1389 1387 1390 1392 1395 1396 1397 1397 1397 1398 1400 1401 1403 1405 1406 1407 1410 1413
1401 1399 1398 1393 1389 1390 1392 1391 1393 1397 1398 1397 1397 1398 1399 1401 1402 1403 1405 1406 1408 1411
Wind_Speed
34 31 27 24 22 24 23 24 28 31 32 34 36 34 35 39 41 41 49 36 41 49
29 27 23 21 18 19 20 22 21 21 27 30 32 34 34 39 42 45 44 42 47 51
23 21 21 23 22 21 21 22 22 22 22 25 30 32 37 41 39 44 46 42 47 47
22 20 22 24 20 19 20 21 20 23 26 25 28 31 34 39 44 41 46 45 42 47
23 21 22 20 17 17 16 21 25 25 23 25 28 32 35 35 47 44 45 44 51 51
19 18 17 16 15 15 20 19 17 18 19 22 24 29 36 37 42 41 42 38 43 48
12 13 14 13 13 13 11 9 12 11 8 10 14 17 22 26 35 39 36 35 43 51
7 9 10 9 10 7 7 8 8 10 6 6 6 10 17 31 29 24 29 34 33 44
11 11 12 11 8 9 10 9 8 11 11 7 6 5 6 18 31 31 32 36 38 35
14 16 17 15 13 12 11 10 12 15 15 14 13 11 7 6 10 25 29 32 35 34
6 12 16 19 20 15 13 15 16 16 16 16 17 16 14 16 15 14 14 20 19 22
6 7 15 17 18 17 15 12 14 14 14 15 16 15 12 12 17 18 19 21 23 22
13 10 10 10 13 16 15 16 12 11 11 12 10 14 13 11 14 17 17 19 23 25
19 15 12 15 15 15 14 15 13 11 10 9 8 8 8 9 12 15 17 16 15 15
Wind_Direction
216 221 226 229 239 229 226 235 235 235 238 239 239 238 235 235 237 231 224 231 222 211
218 223 226 227 224 234 238 236 231 239 239 235 236 235 235 239 230 239 239 231 218 213
226 231 235 227 223 230 230 232 235 243 243 238 239 239 238 243 239 227 239 227 223 218
221 229 222 216 223 227 231 236 244 245 253 245 245 241 245 242 245 232 236 228 230 221
219 214 210 218 221 229 240 250 253 250 243 247 245 243 247 249 228 229 232 225 224 215
195 205 210 214 227 237 248 246 246 249 251 244 246 248 247 250 246 211 220 217 222 221
204 219 224 230 226 254 251 248 249 233 221 248 252 258 257 240 235 240 240 231 230 222
220 225 210 212 247 242 238 241 250 199 231 241 267 272 257 230 225 228 223 219 219 223
174 199 201 209 207 218 218 220 223 216 228 231 240 289 319 249 242 235 230 218 216 207
187 202 210 205 202 211 211 218 229 224 228 231 234 240 234 222 217 201 196 206 198 197
160 171 198 202 209 202 219 217 221 226 230 235 241 248 243 231 216 212 198 192 193 200
71 132 161 151 178 186 188 203 205 206 214 228 236 241 251 242 225 219 217 218 220 226
13 64 96 134 138 147 169 178 172 178 186 199 211 225 227 227 224 231 225 219 220 226
55 43 50 91 112 123 121 146 151 143 137 142 153 168 169 185 202 200 193 184 183 193